Home   Weather   Mersin   Past weeks

Flag for Turkey Past Weather in Mersin, Turkey — Yesterday and Last 2 Weeks

70 °F


Feels Like: 70 °F
Forecast: 55 / 77 °F
Wind: 12 mph from Northeast

Location: Adana / Sakirpasa

Current Time: Oct 26, 2016 at 12:09:24 AM

Latest Report: Oct 25, 2016 at 11:20 PM

Visibility: 10 mi

Pressure: 29.89 "Hg

Humidity: 31%

Dew Point: 37 °F

Location of MersinLocation

Past Weather in Mersin — Graph


Mersin Temperature Yesterday

Maximum temperature yesterday: 86 °F (at 12:50 PM)
Minimum temperature yesterday: 59 °F (at 6:50 AM)
Average temperature yesterday: 73 °F

High & Low Weather Summary for the Past Weeks

High88 °F (Oct 14, 2:20 PM)94% (Oct 11, 1:20 AM)30.04 "Hg (Oct 11, 1:20 AM)
Low54 °F (Oct 16, 4:20 AM)8% (Oct 16, 3:50 PM)29.86 "Hg (Oct 14, 1:50 PM)
Average72 °F59%29.95 "Hg
* Reported Oct 10 10:20 PM — Oct 25 10:50 PM, Mersin, Weather by CustomWeather, © 2016

Note: Actual official high and low records may vary slightly from our data, if they occured in-between our weather recording intervals... More about our weather records


Mersin Weather History for the Previous 24 Hours

Scroll right to see more
Time TempWeatherWind HumidityBarometerVisibility
10:50 PM
Tue, Oct 25
70 °FPassing clouds.10 mph31%29.89 "HgN/A
10:20 PM68 °FPassing clouds.8 mph35%29.89 "HgN/A
9:50 PM68 °FPassing clouds.9 mph38%29.89 "HgN/A
9:20 PM66 °FPassing clouds.3 mph60%29.89 "HgN/A
8:50 PM68 °FPassing clouds.5 mph49%29.89 "HgN/A
8:20 PM70 °FPassing clouds.5 mph57%29.89 "HgN/A
7:50 PM72 °FPassing clouds.3 mph53%29.89 "HgN/A
7:20 PM72 °FPassing clouds.1 mph53%29.89 "HgN/A
6:50 PM75 °FPassing clouds.6 mph47%29.89 "HgN/A
6:20 PM75 °FPassing clouds.5 mph47%29.89 "HgN/A
5:50 PM75 °FPassing clouds.7 mph44%29.86 "HgN/A
5:20 PM81 °FPassing clouds.8 mph34%29.86 "HgN/A
4:50 PM84 °FPassing clouds.5 mph18%29.86 "HgN/A
4:20 PM86 °FPassing clouds.9 mph17%29.86 "HgN/A
3:50 PM86 °FPassing clouds.6 mph18%29.86 "HgN/A
3:20 PM86 °FPassing clouds.5 mph18%29.86 "HgN/A
2:50 PM86 °FPassing clouds.7 mph17%29.89 "HgN/A
2:20 PM86 °FPassing clouds.7 mph18%29.89 "HgN/A
1:50 PM86 °FPassing clouds.6 mph18%29.89 "HgN/A
1:20 PM84 °FPassing clouds.7 mph20%29.89 "HgN/A
12:50 PM86 °FPassing clouds.10 mph20%29.92 "HgN/A
12:20 PM84 °FPassing clouds.9 mph22%29.92 "HgN/A
11:50 AM82 °FScattered clouds.10 mph25%29.95 "HgN/A
11:20 AM82 °FPartly sunny.12 mph23%29.95 "HgN/A
10:50 AM81 °FPartly sunny.10 mph26%29.95 "HgN/A
10:20 AM79 °FPartly sunny.10 mph30%29.95 "HgN/A
9:50 AM77 °FPartly sunny.8 mph34%29.95 "HgN/A
9:20 AM73 °FPartly sunny.7 mph41%29.95 "HgN/A
8:50 AM73 °FPartly sunny.7 mph41%29.95 "HgN/A
8:20 AM66 °FPartly sunny.2 mph83%29.95 "HgN/A
7:50 AM61 °FPartly sunny.No wind94%29.95 "HgN/A
7:20 AM59 °FPartly sunny.2 mph94%29.95 "HgN/A
6:50 AM59 °FPassing clouds.2 mph94%29.95 "HgN/A
6:20 AM61 °FPassing clouds.2 mph94%29.95 "HgN/A
5:50 AM61 °FPassing clouds.2 mph88%29.95 "HgN/A
5:20 AM63 °FPassing clouds.3 mph94%29.95 "HgN/A
4:50 AM61 °FPassing clouds.2 mph94%29.95 "HgN/A
4:20 AM63 °FPassing clouds.2 mph94%29.95 "HgN/A
3:50 AM64 °FPassing clouds.No wind88%29.95 "HgN/A
3:20 AM66 °FPassing clouds.2 mph88%29.95 "HgN/A
2:50 AM66 °FPassing clouds.3 mph88%29.95 "HgN/A
1:50 AM66 °FPassing clouds.3 mph94%29.95 "HgN/A
1:20 AM66 °FPassing clouds.1 mph94%29.95 "HgN/A
12:50 AM66 °FPassing clouds.2 mph94%29.95 "HgN/A
12:20 AM66 °FPassing clouds.1 mph94%29.95 "HgN/A
Weather by CustomWeather, © 2016

See weather overviewHow to use our weather pages